Time,TemperatureF,DewpointF,PressureIn,WindDirection,WindDirectionDegrees,WindSpeedMPH,WindSpeedGustMPH,Humidity,HourlyPrecipIn,Conditions,Clouds,dailyrainin,SoftwareType,DateUTC
2013-07-17 00:04:00,69.8,66.1,30.08,NE,36,0.0,0.0,88,0.00,,SKC,0.00,VWS V14.01,2013-07-17 05:04:00,
2013-07-17 00:09:00,69.7,66.0,30.08,NE,36,0.0,0.0,88,0.00,,SKC,0.00,VWS V14.01,2013-07-17 05:09:00,
2013-07-17 00:14:00,69.5,65.8,30.08,NE,36,0.0,0.0,88,0.00,,SKC,0.00,VWS V14.01,2013-07-17 05:14:00,
2013-07-17 00:19:00,69.4,65.7,30.08,NE,37,0.0,0.0,88,0.00,,SKC,0.00,VWS V14.01,2013-07-17 05:19:00,
2013-07-17 00:24:00,69.4,65.7,30.08,NE,41,0.0,0.0,88,0.00,,SKC,0.00,VWS V14.01,2013-07-17 05:24:00,
2013-07-17 00:29:00,69.4,65.7,30.08,NE,42,0.0,0.0,88,0.00,,SKC,0.00,VWS V14.01,2013-07-17 05:29:00,
2013-07-17 00:34:00,69.4,65.7,30.08,NE,42,0.0,0.0,88,0.00,,SKC,0.00,VWS V14.01,2013-07-17 05:34:00,
2013-07-17 00:39:00,69.2,65.5,30.08,NE,41,0.0,0.0,88,0.00,,SKC,0.00,VWS V14.01,2013-07-17 05:39:00,
2013-07-17 00:44:00,69.2,65.5,30.08,NE,42,0.0,0.0,88,0.00,,SKC,0.00,VWS V14.01,2013-07-17 05:44:00,
2013-07-17 00:49:00,69.1,65.4,30.08,NE,42,0.0,0.0,88,0.00,,SKC,0.00,VWS V14.01,2013-07-17 05:49:00,
2013-07-17 00:54:00,69.1,65.4,30.08,NE,45,0.0,0.0,88,0.00,,SKC,0.00,VWS V14.01,2013-07-17 05:54:00,
2013-07-17 00:59:00,69.1,65.7,30.08,NNE,29,0.0,0.0,89,0.00,,SKC,0.00,VWS V14.01,2013-07-17 05:59:00,
2013-07-17 01:04:00,69.2,65.8,30.08,NE,35,1.0,2.0,89,0.00,,SKC,0.00,VWS V14.01,2013-07-17 06:04:00,
2013-07-17 01:09:00,69.2,65.8,30.08,NE,53,2.0,4.0,89,0.00,,SKC,0.00,VWS V14.01,2013-07-17 06:09:00,
2013-07-17 01:14:00,69.1,65.7,30.08,NE,46,2.0,2.0,89,0.00,,SKC,0.00,VWS V14.01,2013-07-17 06:14:00,
2013-07-17 01:19:00,69.0,65.6,30.08,ENE,62,1.0,2.0,89,0.00,,SKC,0.00,VWS V14.01,2013-07-17 06:19:00,
2013-07-17 01:24:00,68.9,65.5,30.07,NE,40,4.0,4.0,89,0.00,,SKC,0.00,VWS V14.01,2013-07-17 06:24:00,
2013-07-17 01:29:00,68.9,65.5,30.07,ENE,57,3.0,3.0,89,0.00,,SKC,0.00,VWS V14.01,2013-07-17 06:29:00,
2013-07-17 01:34:00,68.8,65.4,30.07,ENE,58,3.0,5.0,89,0.00,,SKC,0.00,VWS V14.01,2013-07-17 06:34:00,
2013-07-17 01:39:00,68.8,65.4,30.07,ENE,69,0.0,0.0,89,0.00,,SKC,0.00,VWS V14.01,2013-07-17 06:39:00,
2013-07-17 01:44:00,68.8,65.1,30.07,ENE,68,0.0,1.0,88,0.00,,SKC,0.00,VWS V14.01,2013-07-17 06:44:00,
2013-07-17 01:49:00,68.8,65.1,30.08,ENE,69,0.0,3.0,88,0.00,,SKC,0.00,VWS V14.01,2013-07-17 06:49:00,
2013-07-17 01:54:00,68.8,65.1,30.08,ENE,69,0.0,0.0,88,0.00,,SKC,0.00,VWS V14.01,2013-07-17 06:54:00,
2013-07-17 01:59:00,68.8,65.4,30.07,ENE,68,2.0,3.0,89,0.00,,SKC,0.00,VWS V14.01,2013-07-17 06:59:00,
2013-07-17 02:04:00,68.8,65.4,30.07,ENE,69,4.0,4.0,89,0.00,,SKC,0.00,VWS V14.01,2013-07-17 07:04:00,
2013-07-17 02:09:00,68.8,65.4,30.07,ENE,69,0.0,0.0,89,0.00,,SKC,0.00,VWS V14.01,2013-07-17 07:09:00,
2013-07-17 02:14:00,68.9,65.5,30.08,ENE,69,0.0,1.0,89,0.00,,SKC,0.00,VWS V14.01,2013-07-17 07:14:00,
2013-07-17 02:19:00,68.9,65.5,30.08,ENE,69,0.0,0.0,89,0.00,,SKC,0.00,VWS V14.01,2013-07-17 07:19:00,
2013-07-17 02:24:00,68.9,65.5,30.08,ENE,69,1.0,2.0,89,0.00,,SKC,0.00,VWS V14.01,2013-07-17 07:24:00,
2013-07-17 02:29:00,68.9,65.5,30.08,ENE,69,0.0,0.0,89,0.00,,SKC,0.00,VWS V14.01,2013-07-17 07:29:00,
2013-07-17 02:34:00,68.9,65.5,30.08,ENE,69,0.0,1.0,89,0.00,,SKC,0.00,VWS V14.01,2013-07-17 07:34:00,
2013-07-17 02:39:00,68.9,65.5,30.08,ENE,74,2.0,3.0,89,0.00,,SKC,0.00,VWS V14.01,2013-07-17 07:39:00,
2013-07-17 02:44:00,68.9,65.5,30.08,ENE,74,0.0,0.0,89,0.00,,SKC,0.00,VWS V14.01,2013-07-17 07:44:00,
2013-07-17 02:49:00,68.9,65.5,30.07,ENE,75,3.0,3.0,89,0.00,,SKC,0.00,VWS V14.01,2013-07-17 07:49:00,
2013-07-17 02:54:00,68.8,65.4,30.07,ENE,74,0.0,0.0,89,0.00,,SKC,0.00,VWS V14.01,2013-07-17 07:54:00,
2013-07-17 02:59:00,68.8,65.1,30.07,ENE,78,0.0,2.0,88,0.00,,SKC,0.00,VWS V14.01,2013-07-17 07:59:00,
2013-07-17 03:04:00,68.8,65.1,30.07,East,83,1.0,3.0,88,0.00,,SKC,0.00,VWS V14.01,2013-07-17 08:04:00,
2013-07-17 03:09:00,68.8,65.1,30.07,East,83,4.0,5.0,88,0.00,,SKC,0.00,VWS V14.01,2013-07-17 08:09:00,
2013-07-17 03:14:00,68.8,65.1,30.07,East,94,1.0,3.0,88,0.00,,SKC,0.00,VWS V14.01,2013-07-17 08:14:00,
2013-07-17 03:19:00,68.8,65.1,30.06,East,90,1.0,4.0,88,0.00,,SKC,0.00,VWS V14.01,2013-07-17 08:19:00,
2013-07-17 03:24:00,68.8,65.1,30.06,ENE,72,1.0,4.0,88,0.00,,SKC,0.00,VWS V14.01,2013-07-17 08:24:00,
2013-07-17 03:29:00,68.8,65.1,30.06,ENE,74,2.0,4.0,88,0.00,,SKC,0.00,VWS V14.01,2013-07-17 08:29:00,
2013-07-17 03:34:00,68.8,65.1,30.06,ENE,76,2.0,4.0,88,0.00,,SKC,0.00,VWS V14.01,2013-07-17 08:34:00,
2013-07-17 03:39:00,68.8,65.1,30.06,East,87,3.0,3.0,88,0.00,,SKC,0.00,VWS V14.01,2013-07-17 08:39:00,
2013-07-17 03:44:00,68.8,65.1,30.06,ESE,103,2.0,2.0,88,0.00,,SKC,0.00,VWS V14.01,2013-07-17 08:44:00,
2013-07-17 03:49:00,68.8,65.4,30.06,ESE,102,0.0,3.0,89,0.00,,SKC,0.00,VWS V14.01,2013-07-17 08:49:00,
2013-07-17 03:54:00,68.8,65.4,30.06,ESE,103,0.0,1.0,89,0.00,,SKC,0.00,VWS V14.01,2013-07-17 08:54:00,
2013-07-17 03:59:00,68.8,65.4,30.06,ESE,103,3.0,3.0,89,0.00,,SKC,0.00,VWS V14.01,2013-07-17 08:59:00,
2013-07-17 04:04:00,68.8,65.4,30.06,ESE,102,2.0,2.0,89,0.00,,SKC,0.00,VWS V14.01,2013-07-17 09:04:00,
2013-07-17 04:09:00,68.8,65.1,30.06,ESE,103,0.0,2.0,88,0.00,,SKC,0.00,VWS V14.01,2013-07-17 09:09:00,
2013-07-17 04:14:00,68.8,65.4,30.06,ESE,115,3.0,5.0,89,0.00,,SKC,0.00,VWS V14.01,2013-07-17 09:14:00,
2013-07-17 04:19:00,68.8,65.1,30.06,ESE,115,1.0,3.0,88,0.00,,SKC,0.00,VWS V14.01,2013-07-17 09:19:00,
2013-07-17 04:24:00,68.7,65.0,30.06,East,82,0.0,0.0,88,0.00,,SKC,0.00,VWS V14.01,2013-07-17 09:24:00,
2013-07-17 04:29:00,68.7,65.0,30.06,East,87,3.0,3.0,88,0.00,,SKC,0.00,VWS V14.01,2013-07-17 09:29:00,
2013-07-17 04:34:00,68.7,65.0,30.06,East,87,0.0,1.0,88,0.00,,SKC,0.00,VWS V14.01,2013-07-17 09:34:00,
2013-07-17 04:39:00,68.7,65.0,30.06,East,89,2.0,4.0,88,0.00,,SKC,0.00,VWS V14.01,2013-07-17 09:39:00,
2013-07-17 04:44:00,68.6,64.9,30.06,East,92,3.0,3.0,88,0.00,,SKC,0.00,VWS V14.01,2013-07-17 09:44:00,
2013-07-17 04:49:00,68.6,64.9,30.06,East,95,3.0,5.0,88,0.00,,SKC,0.00,VWS V14.01,2013-07-17 09:49:00,
2013-07-17 04:54:00,68.6,64.9,30.06,East,95,3.0,3.0,88,0.00,,SKC,0.00,VWS V14.01,2013-07-17 09:54:00,
2013-07-17 04:59:00,68.5,64.8,30.06,East,95,0.0,0.0,88,0.00,,SKC,0.00,VWS V14.01,2013-07-17 09:59:00,
2013-07-17 05:04:00,68.5,64.8,30.06,East,95,2.0,2.0,88,0.00,,SKC,0.00,VWS V14.01,2013-07-17 10:04:00,
2013-07-17 05:09:00,68.6,64.9,30.07,East,95,0.0,3.0,88,0.00,,SKC,0.00,VWS V14.01,2013-07-17 10:09:00,
2013-07-17 05:14:00,68.6,64.9,30.07,East,81,0.0,0.0,88,0.00,,SKC,0.00,VWS V14.01,2013-07-17 10:14:00,
2013-07-17 05:19:00,68.6,64.9,30.07,East,81,4.0,4.0,88,0.00,,SKC,0.00,VWS V14.01,2013-07-17 10:19:00,
2013-07-17 05:24:00,68.6,64.9,30.07,East,80,1.0,2.0,88,0.00,,SKC,0.00,VWS V14.01,2013-07-17 10:24:00,
2013-07-17 05:29:00,68.6,64.9,30.07,East,82,0.0,0.0,88,0.00,,SKC,0.00,VWS V14.01,2013-07-17 10:29:00,
2013-07-17 05:34:00,68.6,64.9,30.07,East,82,2.0,4.0,88,0.00,,SKC,0.00,VWS V14.01,2013-07-17 10:34:00,
2013-07-17 05:39:00,68.6,65.2,30.07,East,90,3.0,5.0,89,0.00,,SKC,0.00,VWS V14.01,2013-07-17 10:39:00,
2013-07-17 05:44:00,68.6,65.2,30.07,East,90,0.0,1.0,89,0.00,,SKC,0.00,VWS V14.01,2013-07-17 10:44:00,
2013-07-17 05:49:00,68.6,65.2,30.07,East,94,2.0,3.0,89,0.00,,SKC,0.00,VWS V14.01,2013-07-17 10:49:00,
2013-07-17 05:54:00,68.6,65.2,30.07,ESE,103,1.0,4.0,89,0.00,,SKC,0.00,VWS V14.01,2013-07-17 10:54:00,
2013-07-17 05:59:00,68.5,65.1,30.07,East,81,2.0,2.0,89,0.00,,SKC,0.00,VWS V14.01,2013-07-17 10:59:00,
2013-07-17 06:04:00,68.6,65.2,30.07,ENE,74,4.0,4.0,89,0.00,,SKC,0.00,VWS V14.01,2013-07-17 11:04:00,
2013-07-17 06:09:00,68.6,65.2,30.07,East,86,0.0,0.0,89,0.00,,SKC,0.00,VWS V14.01,2013-07-17 11:09:00,
2013-07-17 06:14:00,68.6,65.2,30.07,East,86,0.0,3.0,89,0.00,,SKC,0.00,VWS V14.01,2013-07-17 11:14:00,
2013-07-17 06:19:00,68.6,65.2,30.07,East,86,0.0,0.0,89,0.00,,SKC,0.00,VWS V14.01,2013-07-17 11:19:00,
2013-07-17 06:24:00,68.6,65.2,30.07,East,86,0.0,1.0,89,0.00,,SKC,0.00,VWS V14.01,2013-07-17 11:24:00,
2013-07-17 06:29:00,68.6,64.9,30.08,East,86,1.0,2.0,88,0.00,,SKC,0.00,VWS V14.01,2013-07-17 11:29:00,
2013-07-17 06:34:00,68.6,64.9,30.08,ENE,66,0.0,1.0,88,0.00,,SKC,0.00,VWS V14.01,2013-07-17 11:34:00,
2013-07-17 06:39:00,68.6,64.9,30.08,ENE,67,4.0,4.0,88,0.00,,SKC,0.00,VWS V14.01,2013-07-17 11:39:00,
2013-07-17 06:44:00,68.6,64.9,30.08,ENE,67,1.0,1.0,88,0.00,,SKC,0.00,VWS V14.01,2013-07-17 11:44:00,
2013-07-17 06:49:00,68.6,64.9,30.08,ENE,67,0.0,4.0,88,0.00,,SKC,0.00,VWS V14.01,2013-07-17 11:49:00,
2013-07-17 06:54:00,68.6,64.9,30.09,ENE,69,2.0,3.0,88,0.00,,SKC,0.00,VWS V14.01,2013-07-17 11:54:00,
2013-07-17 06:59:00,68.6,64.9,30.09,ENE,69,4.0,4.0,88,0.00,,SKC,0.00,VWS V14.01,2013-07-17 11:59:00,
2013-07-17 07:04:00,68.6,64.9,30.09,ENE,69,0.0,2.0,88,0.00,,SKC,0.00,VWS V14.01,2013-07-17 12:04:00,
2013-07-17 07:09:00,68.6,64.9,30.09,ENE,71,4.0,5.0,88,0.00,,SKC,0.00,VWS V14.01,2013-07-17 12:09:00,
2013-07-17 07:14:00,68.6,64.9,30.09,ENE,72,2.0,3.0,88,0.00,,SKC,0.00,VWS V14.01,2013-07-17 12:14:00,
2013-07-17 07:19:00,68.7,65.0,30.09,ENE,72,0.0,0.0,88,0.00,,SKC,0.00,VWS V14.01,2013-07-17 12:19:00,
2013-07-17 07:24:00,68.7,65.0,30.09,ENE,76,2.0,3.0,88,0.00,,SKC,0.00,VWS V14.01,2013-07-17 12:24:00,
2013-07-17 07:29:00,68.6,64.9,30.09,ENE,76,0.0,1.0,88,0.00,,SKC,0.00,VWS V14.01,2013-07-17 12:29:00,
2013-07-17 07:34:00,68.7,65.0,30.10,ENE,76,0.0,2.0,88,0.00,,SKC,0.00,VWS V14.01,2013-07-17 12:34:00,
2013-07-17 07:39:00,68.8,65.4,30.10,ENE,76,0.0,0.0,89,0.00,,SKC,0.00,VWS V14.01,2013-07-17 12:39:00,
2013-07-17 07:44:00,68.9,65.5,30.10,ENE,75,0.0,3.0,89,0.00,,SKC,0.00,VWS V14.01,2013-07-17 12:44:00,
2013-07-17 07:49:00,69.0,65.6,30.10,ENE,76,1.0,2.0,89,0.00,,SKC,0.00,VWS V14.01,2013-07-17 12:49:00,
2013-07-17 07:54:00,69.1,65.7,30.10,ENE,76,0.0,1.0,89,0.00,,SKC,0.00,VWS V14.01,2013-07-17 12:54:00,
2013-07-17 07:59:00,69.1,65.7,30.11,ENE,76,4.0,4.0,89,0.00,,SKC,0.00,VWS V14.01,2013-07-17 12:59:00,
2013-07-17 08:04:00,69.2,65.5,30.11,ENE,76,0.0,4.0,88,0.00,,SKC,0.00,VWS V14.01,2013-07-17 13:04:00,
2013-07-17 08:09:00,69.1,65.7,30.11,ENE,74,0.0,4.0,89,0.00,,SKC,0.00,VWS V14.01,2013-07-17 13:09:00,
2013-07-17 08:14:00,69.4,65.7,30.11,ENE,78,4.0,4.0,88,0.00,,SKC,0.00,VWS V14.01,2013-07-17 13:14:00,
2013-07-17 08:19:00,69.5,65.8,30.11,East,82,1.0,5.0,88,0.00,,SKC,0.00,VWS V14.01,2013-07-17 13:19:00,
2013-07-17 08:24:00,69.4,65.7,30.11,East,80,1.0,6.0,88,0.00,,SKC,0.00,VWS V14.01,2013-07-17 13:24:00,
2013-07-17 08:29:00,69.3,65.6,30.11,East,90,2.0,3.0,88,0.00,,SKC,0.00,VWS V14.01,2013-07-17 13:29:00,
2013-07-17 08:34:00,69.2,65.5,30.11,East,79,2.0,6.0,88,0.00,,SKC,0.00,VWS V14.01,2013-07-17 13:34:00,
2013-07-17 08:39:00,69.3,65.6,30.11,ESE,114,3.0,6.0,88,0.00,,SKC,0.00,VWS V14.01,2013-07-17 13:39:00,
2013-07-17 08:44:00,69.7,66.0,30.11,NE,53,4.0,5.0,88,0.00,,SKC,0.00,VWS V14.01,2013-07-17 13:44:00,
2013-07-17 08:50:00,69.9,66.2,30.11,NE,49,3.0,5.0,88,0.00,,SKC,0.00,VWS V14.01,2013-07-17 13:50:00,
2013-07-17 08:54:00,70.3,66.6,30.11,NE,51,6.0,6.0,88,0.00,,SKC,0.00,VWS V14.01,2013-07-17 13:54:00,
2013-07-17 08:59:00,70.6,66.9,30.11,East,96,5.0,5.0,88,0.00,,SKC,0.00,VWS V14.01,2013-07-17 13:59:00,
2013-07-17 09:04:00,70.8,67.1,30.12,East,83,1.0,4.0,88,0.00,,SKC,0.00,VWS V14.01,2013-07-17 14:04:00,
2013-07-17 09:09:00,71.4,67.7,30.12,ENE,71,3.0,5.0,88,0.00,,SKC,0.00,VWS V14.01,2013-07-17 14:09:00,
2013-07-17 09:14:00,71.6,68.2,30.12,ENE,78,3.0,4.0,89,0.00,,SKC,0.00,VWS V14.01,2013-07-17 14:14:00,
2013-07-17 09:19:00,72.3,68.9,30.12,ENE,68,6.0,6.0,89,0.00,,SKC,0.00,VWS V14.01,2013-07-17 14:19:00,
2013-07-17 09:24:00,72.8,68.7,30.12,ENE,74,1.0,4.0,87,0.00,,SKC,0.00,VWS V14.01,2013-07-17 14:24:00,
2013-07-17 09:29:00,73.1,68.3,30.12,ESE,104,4.0,4.0,85,0.00,,SKC,0.00,VWS V14.01,2013-07-17 14:29:00,
2013-07-17 09:35:00,73.2,68.4,30.12,East,90,3.0,3.0,85,0.00,,SKC,0.00,VWS V14.01,2013-07-17 14:35:00,
2013-07-17 09:40:00,73.1,68.0,30.12,ESE,105,3.0,3.0,84,0.00,,SKC,0.00,VWS V14.01,2013-07-17 14:40:00,
2013-07-17 09:45:00,73.0,67.9,30.12,ENE,75,3.0,5.0,84,0.00,,SKC,0.00,VWS V14.01,2013-07-17 14:45:00,
2013-07-17 09:50:00,73.1,68.3,30.12,ENE,78,6.0,6.0,85,0.00,,SKC,0.00,VWS V14.01,2013-07-17 14:50:00,
2013-07-17 09:55:00,73.3,68.2,30.12,East,80,2.0,2.0,84,0.00,,SKC,0.00,VWS V14.01,2013-07-17 14:55:00,
2013-07-17 10:00:00,73.4,68.3,30.12,ENE,71,3.0,3.0,84,0.00,,SKC,0.00,VWS V14.01,2013-07-17 15:00:00,
2013-07-17 10:05:00,73.9,68.8,30.12,ESE,117,3.0,3.0,84,0.00,,SKC,0.00,VWS V14.01,2013-07-17 15:05:00,
2013-07-17 10:10:00,74.3,68.4,30.12,ENE,76,0.0,3.0,82,0.00,,SKC,0.00,VWS V14.01,2013-07-17 15:10:00,
2013-07-17 10:15:00,74.8,68.6,30.12,East,84,1.0,3.0,81,0.00,,SKC,0.00,VWS V14.01,2013-07-17 15:15:00,
2013-07-17 10:20:00,75.0,68.4,30.12,ENE,74,1.0,1.0,80,0.00,,SKC,0.00,VWS V14.01,2013-07-17 15:20:00,
2013-07-17 10:25:00,75.4,68.4,30.12,SE,142,2.0,4.0,79,0.00,,SKC,0.00,VWS V14.01,2013-07-17 15:25:00,
2013-07-17 10:30:00,75.7,68.4,30.12,ENE,77,4.0,4.0,78,0.00,,SKC,0.00,VWS V14.01,2013-07-17 15:30:00,
2013-07-17 10:35:00,75.5,68.2,30.12,ENE,62,2.0,3.0,78,0.00,,SKC,0.00,VWS V14.01,2013-07-17 15:35:00,
2013-07-17 10:40:00,75.5,68.2,30.12,ENE,57,0.0,3.0,78,0.00,,SKC,0.00,VWS V14.01,2013-07-17 15:40:00,
2013-07-17 10:45:00,75.4,68.1,30.12,ESE,109,1.0,4.0,78,0.00,,SKC,0.00,VWS V14.01,2013-07-17 15:45:00,
2013-07-17 10:50:00,75.4,68.1,30.12,ENE,74,3.0,4.0,78,0.00,,SKC,0.00,VWS V14.01,2013-07-17 15:50:00,
2013-07-17 10:55:00,75.7,68.4,30.12,ENE,71,5.0,6.0,78,0.00,,SKC,0.00,VWS V14.01,2013-07-17 15:55:00,
2013-07-17 11:00:00,76.7,68.9,30.12,ENE,69,4.0,4.0,77,0.00,,SKC,0.00,VWS V14.01,2013-07-17 16:00:00,
2013-07-17 11:05:00,77.3,68.4,30.12,ENE,59,4.0,6.0,74,0.00,,SKC,0.00,VWS V14.01,2013-07-17 16:05:00,
2013-07-17 11:10:00,77.5,68.6,30.12,ENE,61,2.0,2.0,74,0.00,,SKC,0.00,VWS V14.01,2013-07-17 16:10:00,
2013-07-17 11:15:00,77.4,68.1,30.12,East,101,3.0,3.0,73,0.00,,SKC,0.00,VWS V14.01,2013-07-17 16:15:00,
2013-07-17 11:20:00,77.4,67.7,30.12,SE,142,2.0,3.0,72,0.00,,SKC,0.00,VWS V14.01,2013-07-17 16:20:00,
2013-07-17 11:25:00,77.4,67.7,30.12,East,88,4.0,4.0,72,0.00,,SKC,0.00,VWS V14.01,2013-07-17 16:25:00,
2013-07-17 11:30:00,77.4,67.7,30.12,ESE,107,3.0,5.0,72,0.00,,SKC,0.00,VWS V14.01,2013-07-17 16:30:00,
2013-07-17 11:35:00,77.5,67.8,30.12,SE,136,1.0,5.0,72,0.00,,SKC,0.00,VWS V14.01,2013-07-17 16:35:00,
2013-07-17 11:40:00,77.5,67.8,30.12,ESE,118,4.0,5.0,72,0.00,,SKC,0.00,VWS V14.01,2013-07-17 16:40:00,
2013-07-17 11:45:00,77.6,68.3,30.12,ENE,78,4.0,5.0,73,0.00,,SKC,0.00,VWS V14.01,2013-07-17 16:45:00,
2013-07-17 11:50:00,77.9,68.2,30.12,ENE,78,7.0,10.0,72,0.00,,SKC,0.00,VWS V14.01,2013-07-17 16:50:00,
2013-07-17 11:55:00,78.3,68.5,30.11,NE,34,0.0,3.0,72,0.00,,SKC,0.00,VWS V14.01,2013-07-17 16:55:00,
2013-07-17 12:00:00,78.7,68.9,30.11,East,86,3.0,7.0,72,0.00,,SKC,0.00,VWS V14.01,2013-07-17 17:00:00,
2013-07-17 12:05:00,78.2,67.6,30.11,East,98,10.0,10.0,70,0.00,,SKC,0.00,VWS V14.01,2013-07-17 17:05:00,
2013-07-17 12:10:00,77.6,67.9,30.11,ESE,109,4.0,4.0,72,0.00,,SKC,0.00,VWS V14.01,2013-07-17 17:10:00,
2013-07-17 12:15:00,77.3,68.8,30.11,ENE,74,2.0,4.0,75,0.00,,SKC,0.00,VWS V14.01,2013-07-17 17:15:00,
2013-07-17 12:20:00,77.6,68.7,30.11,East,88,7.0,7.0,74,0.00,,SKC,0.00,VWS V14.01,2013-07-17 17:20:00,
2013-07-17 12:25:00,78.2,68.8,30.11,ENE,70,4.0,6.0,73,0.00,,SKC,0.00,VWS V14.01,2013-07-17 17:25:00,
2013-07-17 12:30:00,78.4,68.6,30.11,ENE,78,2.0,3.0,72,0.00,,SKC,0.00,VWS V14.01,2013-07-17 17:30:00,
2013-07-17 12:35:00,78.3,68.5,30.10,East,97,1.0,4.0,72,0.00,,SKC,0.00,VWS V14.01,2013-07-17 17:35:00,
2013-07-17 12:40:00,78.3,68.5,30.10,East,80,2.0,4.0,72,0.00,,SKC,0.00,VWS V14.01,2013-07-17 17:40:00,
2013-07-17 12:45:00,78.4,68.2,30.10,East,95,3.0,6.0,71,0.00,,SKC,0.00,VWS V14.01,2013-07-17 17:45:00,
2013-07-17 12:50:00,78.7,69.7,30.10,ENE,71,3.0,3.0,74,0.00,,SKC,0.00,VWS V14.01,2013-07-17 17:50:00,
2013-07-17 12:55:00,79.4,68.8,30.10,ESE,116,7.0,7.0,70,0.00,,SKC,0.00,VWS V14.01,2013-07-17 17:55:00,
2013-07-17 13:00:00,79.3,68.3,30.10,ESE,104,0.0,1.0,69,0.00,,SKC,0.00,VWS V14.01,2013-07-17 18:00:00,
2013-07-17 13:05:00,78.7,68.9,30.10,East,83,2.0,4.0,72,0.00,,SKC,0.00,VWS V14.01,2013-07-17 18:05:00,
2013-07-17 13:10:00,79.1,69.3,30.10,NNE,27,8.0,8.0,72,0.00,,SKC,0.00,VWS V14.01,2013-07-17 18:10:00,
2013-07-17 13:15:00,79.4,69.2,30.09,SE,124,3.0,9.0,71,0.00,,SKC,0.00,VWS V14.01,2013-07-17 18:15:00,
2013-07-17 13:20:00,79.8,69.6,30.09,ESE,107,3.0,6.0,71,0.00,,SKC,0.00,VWS V14.01,2013-07-17 18:20:00,
2013-07-17 13:25:00,81.2,70.1,30.09,East,94,2.0,4.0,69,0.00,,SKC,0.00,VWS V14.01,2013-07-17 18:25:00,
2013-07-17 13:30:00,80.9,69.4,30.09,ENE,69,6.0,6.0,68,0.00,,SKC,0.00,VWS V14.01,2013-07-17 18:30:00,
2013-07-17 13:35:00,80.4,69.3,30.09,SE,140,5.0,5.0,69,0.00,,SKC,0.00,VWS V14.01,2013-07-17 18:35:00,
2013-07-17 13:40:00,80.9,68.5,30.08,ESE,111,6.0,9.0,66,0.00,,SKC,0.00,VWS V14.01,2013-07-17 18:40:00,
2013-07-17 13:45:00,81.3,68.0,30.08,ENE,73,0.0,3.0,64,0.00,,SKC,0.00,VWS V14.01,2013-07-17 18:45:00,
2013-07-17 13:50:00,82.2,67.9,30.08,ESE,121,5.0,12.0,62,0.00,,SKC,0.00,VWS V14.01,2013-07-17 18:50:00,
2013-07-17 13:55:00,82.4,68.6,30.08,ENE,74,5.0,7.0,63,0.00,,SKC,0.00,VWS V14.01,2013-07-17 18:55:00,
2013-07-17 14:00:00,82.2,69.3,30.08,NE,53,6.0,7.0,65,0.00,,SKC,0.00,VWS V14.01,2013-07-17 19:00:00,
2013-07-17 14:05:00,81.2,68.8,30.07,East,84,9.0,9.0,66,0.00,,SKC,0.00,VWS V14.01,2013-07-17 19:05:00,
2013-07-17 14:10:00,81.5,69.9,30.07,East,98,5.0,7.0,68,0.00,,SKC,0.00,VWS V14.01,2013-07-17 19:10:00,
2013-07-17 14:15:00,81.6,69.2,30.07,East,92,1.0,4.0,66,0.00,,SKC,0.00,VWS V14.01,2013-07-17 19:15:00,
2013-07-17 14:20:00,81.2,69.2,30.07,NE,51,1.0,5.0,67,0.00,,SKC,0.00,VWS V14.01,2013-07-17 19:20:00,
2013-07-17 14:25:00,80.5,69.8,30.07,East,98,6.0,13.0,70,0.00,,SKC,0.00,VWS V14.01,2013-07-17 19:25:00,
2013-07-17 14:30:00,79.6,69.4,30.07,East,80,16.0,16.0,71,0.00,,SKC,0.00,VWS V14.01,2013-07-17 19:30:00,
2013-07-17 14:35:00,78.5,69.5,30.07,ENE,60,7.0,14.0,74,0.00,,SKC,0.00,VWS V14.01,2013-07-17 19:35:00,
2013-07-17 14:40:00,77.7,68.8,30.07,East,96,5.0,15.0,74,0.00,,SKC,0.00,VWS V14.01,2013-07-17 19:40:00,
2013-07-17 14:45:00,77.3,68.4,30.07,ESE,122,5.0,9.0,74,0.00,,SKC,0.00,VWS V14.01,2013-07-17 19:45:00,
2013-07-17 14:50:00,76.7,68.9,30.08,SE,141,11.0,11.0,77,0.00,,SKC,0.00,VWS V14.01,2013-07-17 19:50:00,
2013-07-17 14:55:00,75.5,68.5,30.08,ESE,105,10.0,11.0,79,0.00,,SKC,0.00,VWS V14.01,2013-07-17 19:55:00,
2013-07-17 15:00:00,74.6,69.1,30.08,SE,136,4.0,12.0,83,0.00,,SKC,0.00,VWS V14.01,2013-07-17 20:00:00,
2013-07-17 15:05:00,73.9,69.1,30.08,SE,136,2.0,6.0,85,0.01,,SKC,0.01,VWS V14.01,2013-07-17 20:05:00,
2013-07-17 15:10:00,73.3,68.9,30.08,SE,130,9.0,10.0,86,0.01,,SKC,0.01,VWS V14.01,2013-07-17 20:10:00,
2013-07-17 15:15:00,73.1,69.0,30.08,ESE,115,1.0,3.0,87,0.01,,SKC,0.01,VWS V14.01,2013-07-17 20:15:00,
2013-07-17 15:20:00,73.1,69.0,30.08,East,101,4.0,4.0,87,0.01,,SKC,0.01,VWS V14.01,2013-07-17 20:20:00,
2013-07-17 15:25:00,72.8,68.7,30.08,East,80,4.0,9.0,87,0.01,,SKC,0.01,VWS V14.01,2013-07-17 20:25:00,
2013-07-17 15:30:00,72.5,68.4,30.08,East,86,7.0,10.0,87,0.02,,SKC,0.02,VWS V14.01,2013-07-17 20:30:00,
2013-07-17 15:35:00,72.2,68.1,30.07,East,94,1.0,3.0,87,0.03,,SKC,0.03,VWS V14.01,2013-07-17 20:35:00,
2013-07-17 15:40:00,71.9,68.2,30.07,East,86,2.0,2.0,88,0.05,,SKC,0.05,VWS V14.01,2013-07-17 20:40:00,
2013-07-17 15:45:00,71.7,68.0,30.07,East,95,7.0,8.0,88,0.05,,SKC,0.05,VWS V14.01,2013-07-17 20:45:00,
2013-07-17 15:50:00,71.7,68.0,30.07,NNE,30,6.0,11.0,88,0.05,,SKC,0.05,VWS V14.01,2013-07-17 20:50:00,
2013-07-17 15:55:00,71.9,68.2,30.07,ENE,61,4.0,6.0,88,0.05,,SKC,0.05,VWS V14.01,2013-07-17 20:55:00,
2013-07-17 16:00:00,72.2,68.4,30.07,ENE,73,2.0,5.0,88,0.05,,SKC,0.05,VWS V14.01,2013-07-17 21:00:00,
2013-07-17 16:05:00,72.6,68.8,30.06,ENE,75,5.0,6.0,88,0.04,,SKC,0.05,VWS V14.01,2013-07-17 21:05:00,
2013-07-17 16:10:00,72.9,69.1,30.06,ENE,63,7.0,7.0,88,0.04,,SKC,0.05,VWS V14.01,2013-07-17 21:10:00,
2013-07-17 16:15:00,72.8,69.0,30.06,ENE,72,4.0,10.0,88,0.04,,SKC,0.05,VWS V14.01,2013-07-17 21:15:00,
2013-07-17 16:20:00,72.9,69.1,30.06,East,80,1.0,10.0,88,0.04,,SKC,0.05,VWS V14.01,2013-07-17 21:20:00,
2013-07-17 16:25:00,73.1,69.3,30.06,ENE,59,5.0,9.0,88,0.04,,SKC,0.05,VWS V14.01,2013-07-17 21:25:00,
2013-07-17 16:30:00,73.3,69.5,30.06,NE,55,3.0,7.0,88,0.03,,SKC,0.05,VWS V14.01,2013-07-17 21:30:00,
2013-07-17 16:35:00,74.0,70.2,30.06,NE,56,7.0,11.0,88,0.02,,SKC,0.05,VWS V14.01,2013-07-17 21:35:00,
2013-07-17 16:40:00,74.3,70.5,30.05,ENE,74,3.0,5.0,88,0.00,,SKC,0.05,VWS V14.01,2013-07-17 21:40:00,
2013-07-17 16:45:00,74.5,70.0,30.05,NE,48,4.0,6.0,86,0.00,,SKC,0.05,VWS V14.01,2013-07-17 21:45:00,
2013-07-17 16:50:00,74.8,70.3,30.05,NE,55,7.0,7.0,86,0.00,,SKC,0.05,VWS V14.01,2013-07-17 21:50:00,
2013-07-17 16:55:00,74.9,69.7,30.05,East,100,1.0,5.0,84,0.00,,SKC,0.05,VWS V14.01,2013-07-17 21:55:00,
2013-07-17 17:00:00,75.1,69.9,30.05,ENE,76,4.0,6.0,84,0.00,,SKC,0.05,VWS V14.01,2013-07-17 22:00:00,
2013-07-17 17:05:00,75.8,70.3,30.05,NNE,19,5.0,6.0,83,0.00,,SKC,0.05,VWS V14.01,2013-07-17 22:05:00,
2013-07-17 17:10:00,76.2,69.6,30.05,ESE,105,7.0,9.0,80,0.00,,SKC,0.05,VWS V14.01,2013-07-17 22:10:00,
2013-07-17 17:15:00,76.3,69.3,30.05,East,83,2.0,5.0,79,0.00,,SKC,0.05,VWS V14.01,2013-07-17 22:15:00,
2013-07-17 17:20:00,76.6,69.6,30.05,East,80,3.0,9.0,79,0.00,,SKC,0.05,VWS V14.01,2013-07-17 22:20:00,
2013-07-17 17:25:00,76.3,68.9,30.06,South,187,9.0,9.0,78,0.00,,SKC,0.05,VWS V14.01,2013-07-17 22:25:00,
2013-07-17 17:30:00,74.5,67.6,30.06,SSE,150,7.0,12.0,79,0.00,,SKC,0.05,VWS V14.01,2013-07-17 22:30:00,
2013-07-17 17:35:00,73.3,67.5,30.06,SE,128,5.0,9.0,82,0.01,,SKC,0.06,VWS V14.01,2013-07-17 22:35:00,
2013-07-17 17:40:00,72.4,67.3,30.06,ESE,110,7.0,14.0,84,0.01,,SKC,0.06,VWS V14.01,2013-07-17 22:40:00,
2013-07-17 17:45:00,71.8,67.4,30.06,SE,136,6.0,10.0,86,0.01,,SKC,0.06,VWS V14.01,2013-07-17 22:45:00,
2013-07-17 17:50:00,71.3,66.9,30.07,SE,128,6.0,7.0,86,0.01,,SKC,0.06,VWS V14.01,2013-07-17 22:50:00,
2013-07-17 17:55:00,71.0,66.9,30.06,SSE,167,5.0,6.0,87,0.01,,SKC,0.06,VWS V14.01,2013-07-17 22:55:00,
2013-07-17 18:00:00,70.8,66.7,30.06,SSE,161,7.0,11.0,87,0.01,,SKC,0.06,VWS V14.01,2013-07-17 23:00:00,
2013-07-17 18:05:00,70.6,66.2,30.07,ESE,122,6.0,10.0,86,0.01,,SKC,0.06,VWS V14.01,2013-07-17 23:05:00,
2013-07-17 18:10:00,70.6,66.6,30.07,ESE,113,3.0,5.0,87,0.01,,SKC,0.06,VWS V14.01,2013-07-17 23:10:00,
2013-07-17 18:15:00,70.7,66.7,30.06,ESE,107,4.0,5.0,87,0.01,,SKC,0.06,VWS V14.01,2013-07-17 23:15:00,
2013-07-17 18:20:00,70.8,66.7,30.06,SE,132,6.0,6.0,87,0.01,,SKC,0.06,VWS V14.01,2013-07-17 23:20:00,
2013-07-17 18:25:00,70.9,66.8,30.07,ESE,109,3.0,4.0,87,0.01,,SKC,0.06,VWS V14.01,2013-07-17 23:25:00,
2013-07-17 18:30:00,71.0,66.6,30.07,ESE,115,3.0,5.0,86,0.01,,SKC,0.06,VWS V14.01,2013-07-17 23:30:00,
2013-07-17 18:35:00,71.2,66.8,30.07,ESE,121,1.0,4.0,86,0.00,,SKC,0.06,VWS V14.01,2013-07-17 23:35:00,
2013-07-17 18:40:00,71.3,66.9,30.07,SE,144,2.0,2.0,86,0.00,,SKC,0.06,VWS V14.01,2013-07-17 23:40:00,
2013-07-17 18:45:00,71.3,66.9,30.07,ESE,119,1.0,2.0,86,0.00,,SKC,0.06,VWS V14.01,2013-07-17 23:45:00,
2013-07-17 18:50:00,71.3,66.9,30.07,SE,142,3.0,9.0,86,0.00,,SKC,0.06,VWS V14.01,2013-07-17 23:50:00,
2013-07-17 18:55:00,71.3,66.9,30.07,SE,134,4.0,5.0,86,0.00,,SKC,0.06,VWS V14.01,2013-07-17 23:55:00,
2013-07-17 19:00:00,71.3,66.9,30.07,ESE,119,2.0,6.0,86,0.00,,SKC,0.06,VWS V14.01,2013-07-18 00:00:00,
2013-07-17 19:05:00,71.2,66.8,30.07,ESE,103,2.0,4.0,86,0.00,,SKC,0.06,VWS V14.01,2013-07-18 00:05:00,
2013-07-17 19:10:00,71.3,66.9,30.07,SSE,157,4.0,4.0,86,0.00,,SKC,0.06,VWS V14.01,2013-07-18 00:10:00,
2013-07-17 19:15:00,71.2,66.8,30.07,SE,140,4.0,4.0,86,0.00,,SKC,0.06,VWS V14.01,2013-07-18 00:15:00,
2013-07-17 19:20:00,71.0,66.6,30.07,SE,134,4.0,7.0,86,0.00,,SKC,0.06,VWS V14.01,2013-07-18 00:20:00,
2013-07-17 19:25:00,70.9,66.5,30.07,SE,127,4.0,5.0,86,0.00,,SKC,0.06,VWS V14.01,2013-07-18 00:25:00,
2013-07-17 19:30:00,70.8,66.7,30.07,SSE,158,5.0,5.0,87,0.00,,SKC,0.06,VWS V14.01,2013-07-18 00:30:00,
2013-07-17 19:35:00,70.8,66.7,30.07,ESE,111,2.0,4.0,87,0.00,,SKC,0.06,VWS V14.01,2013-07-18 00:35:00,
2013-07-17 19:40:00,70.8,66.7,30.07,ESE,107,3.0,4.0,87,0.00,,SKC,0.06,VWS V14.01,2013-07-18 00:40:00,
2013-07-17 19:45:00,70.8,66.7,30.07,SE,128,4.0,4.0,87,0.00,,SKC,0.06,VWS V14.01,2013-07-18 00:45:00,
2013-07-17 19:50:00,70.8,66.7,30.08,ESE,107,3.0,6.0,87,0.00,,SKC,0.06,VWS V14.01,2013-07-18 00:50:00,
2013-07-17 19:55:00,70.8,66.7,30.08,ESE,102,1.0,4.0,87,0.00,,SKC,0.06,VWS V14.01,2013-07-18 00:55:00,
2013-07-17 20:00:00,70.8,66.7,30.08,ESE,107,6.0,7.0,87,0.00,,SKC,0.06,VWS V14.01,2013-07-18 01:00:00,
2013-07-17 20:05:00,70.7,66.7,30.08,ESE,111,4.0,4.0,87,0.00,,SKC,0.06,VWS V14.01,2013-07-18 01:05:00,
2013-07-17 20:10:00,70.7,66.7,30.08,East,94,2.0,3.0,87,0.00,,SKC,0.06,VWS V14.01,2013-07-18 01:10:00,
2013-07-17 20:15:00,70.6,66.6,30.08,ESE,107,5.0,10.0,87,0.00,,SKC,0.06,VWS V14.01,2013-07-18 01:15:00,
2013-07-17 20:20:00,70.4,66.3,30.08,ESE,115,2.0,10.0,87,0.00,,SKC,0.06,VWS V14.01,2013-07-18 01:20:00,
2013-07-17 20:25:00,70.3,66.6,30.08,ESE,119,3.0,4.0,88,0.00,,SKC,0.06,VWS V14.01,2013-07-18 01:25:00,
2013-07-17 20:30:00,70.3,66.6,30.08,East,80,1.0,5.0,88,0.00,,SKC,0.06,VWS V14.01,2013-07-18 01:30:00,
2013-07-17 20:35:00,70.2,66.5,30.08,ESE,111,3.0,6.0,88,0.00,,SKC,0.06,VWS V14.01,2013-07-18 01:35:00,
2013-07-17 20:40:00,70.1,66.4,30.09,East,96,7.0,7.0,88,0.00,,SKC,0.06,VWS V14.01,2013-07-18 01:40:00,
2013-07-17 20:45:00,70.0,66.3,30.09,East,98,4.0,5.0,88,0.00,,SKC,0.06,VWS V14.01,2013-07-18 01:45:00,
2013-07-17 20:50:00,69.9,66.2,30.10,ESE,122,3.0,6.0,88,0.00,,SKC,0.06,VWS V14.01,2013-07-18 01:50:00,
2013-07-17 20:55:00,69.9,65.9,30.10,East,90,3.0,7.0,87,0.00,,SKC,0.06,VWS V14.01,2013-07-18 01:55:00,
2013-07-17 21:00:00,69.9,65.9,30.10,ESE,105,2.0,2.0,87,0.00,,SKC,0.06,VWS V14.01,2013-07-18 02:00:00,
2013-07-17 21:05:00,69.9,65.9,30.10,East,94,4.0,6.0,87,0.00,,SKC,0.06,VWS V14.01,2013-07-18 02:05:00,
2013-07-17 21:10:00,69.9,66.2,30.10,East,86,0.0,2.0,88,0.00,,SKC,0.06,VWS V14.01,2013-07-18 02:10:00,
2013-07-17 21:15:00,69.8,66.1,30.10,ESE,114,5.0,6.0,88,0.00,,SKC,0.06,VWS V14.01,2013-07-18 02:15:00,
2013-07-17 21:20:00,69.7,66.0,30.10,East,100,0.0,3.0,88,0.00,,SKC,0.06,VWS V14.01,2013-07-18 02:20:00,
2013-07-17 21:25:00,69.7,66.0,30.10,East,96,0.0,4.0,88,0.00,,SKC,0.06,VWS V14.01,2013-07-18 02:25:00,
2013-07-17 21:30:00,69.6,65.9,30.10,East,98,2.0,3.0,88,0.00,,SKC,0.06,VWS V14.01,2013-07-18 02:30:00,
2013-07-17 21:35:00,69.5,65.8,30.10,East,98,0.0,1.0,88,0.00,,SKC,0.06,VWS V14.01,2013-07-18 02:35:00,
2013-07-17 21:40:00,69.5,65.8,30.10,ESE,111,2.0,3.0,88,0.00,,SKC,0.06,VWS V14.01,2013-07-18 02:40:00,
2013-07-17 21:45:00,69.4,65.7,30.10,East,93,3.0,5.0,88,0.00,,SKC,0.06,VWS V14.01,2013-07-18 02:45:00,
2013-07-17 21:50:00,69.4,65.7,30.10,ESE,123,3.0,3.0,88,0.00,,SKC,0.06,VWS V14.01,2013-07-18 02:50:00,
2013-07-17 21:55:00,69.4,65.7,30.10,ESE,121,1.0,2.0,88,0.00,,SKC,0.06,VWS V14.01,2013-07-18 02:55:00,
2013-07-17 22:00:00,69.4,65.7,30.11,ESE,113,5.0,5.0,88,0.00,,SKC,0.06,VWS V14.01,2013-07-18 03:00:00,
2013-07-17 22:05:00,69.4,65.7,30.11,East,95,1.0,5.0,88,0.00,,SKC,0.06,VWS V14.01,2013-07-18 03:05:00,
2013-07-17 22:10:00,69.4,65.7,30.11,ESE,105,1.0,3.0,88,0.00,,SKC,0.06,VWS V14.01,2013-07-18 03:10:00,
2013-07-17 22:15:00,69.4,65.7,30.11,SE,134,2.0,5.0,88,0.00,,SKC,0.06,VWS V14.01,2013-07-18 03:15:00,
2013-07-17 22:20:00,69.4,65.7,30.11,ESE,110,4.0,4.0,88,0.00,,SKC,0.06,VWS V14.01,2013-07-18 03:20:00,
2013-07-17 22:25:00,69.3,65.6,30.11,ESE,109,3.0,6.0,88,0.00,,SKC,0.06,VWS V14.01,2013-07-18 03:25:00,
2013-07-17 22:30:00,69.2,65.5,30.11,ESE,106,1.0,2.0,88,0.00,,SKC,0.06,VWS V14.01,2013-07-18 03:30:00,
2013-07-17 22:35:00,69.2,65.5,30.11,SE,139,4.0,4.0,88,0.00,,SKC,0.06,VWS V14.01,2013-07-18 03:35:00,
2013-07-17 22:40:00,69.1,65.4,30.11,SE,142,3.0,4.0,88,0.00,,SKC,0.06,VWS V14.01,2013-07-18 03:40:00,
2013-07-17 22:45:00,69.0,65.3,30.11,SE,144,1.0,3.0,88,0.00,,SKC,0.06,VWS V14.01,2013-07-18 03:45:00,
2013-07-17 22:50:00,69.0,65.3,30.11,SE,146,3.0,4.0,88,0.00,,SKC,0.06,VWS V14.01,2013-07-18 03:50:00,
2013-07-17 22:55:00,69.0,65.3,30.11,SE,146,1.0,5.0,88,0.00,,SKC,0.06,VWS V14.01,2013-07-18 03:55:00,
2013-07-17 23:00:00,68.9,65.5,30.11,SSE,147,1.0,4.0,89,0.00,,SKC,0.06,VWS V14.01,2013-07-18 04:00:00,
2013-07-17 23:01:00,68.9,65.5,30.11,SE,146,4.0,4.0,89,0.00,,SKC,0.06,VWS V14.01,2013-07-18 04:01:00,
2013-07-17 23:06:00,68.9,65.5,30.11,SE,146,0.0,1.0,89,0.00,,SKC,0.06,VWS V14.01,2013-07-18 04:06:00,
2013-07-17 23:11:00,68.8,65.4,30.11,SSE,147,0.0,2.0,89,0.00,,SKC,0.06,VWS V14.01,2013-07-18 04:11:00,
2013-07-17 23:16:00,68.8,65.1,30.11,ESE,107,1.0,2.0,88,0.00,,SKC,0.06,VWS V14.01,2013-07-18 04:16:00,
2013-07-17 23:21:00,68.8,65.1,30.11,ESE,107,0.0,3.0,88,0.00,,SKC,0.06,VWS V14.01,2013-07-18 04:21:00,
2013-07-17 23:26:00,68.7,65.0,30.11,ESE,107,1.0,1.0,88,0.00,,SKC,0.06,VWS V14.01,2013-07-18 04:26:00,
2013-07-17 23:31:00,68.6,64.9,30.11,ESE,106,2.0,2.0,88,0.00,,SKC,0.06,VWS V14.01,2013-07-18 04:31:00,
2013-07-17 23:36:00,68.6,65.2,30.11,ESE,106,1.0,2.0,89,0.00,,SKC,0.06,VWS V14.01,2013-07-18 04:36:00,
2013-07-17 23:41:00,68.5,65.1,30.11,ESE,107,0.0,0.0,89,0.00,,SKC,0.06,VWS V14.01,2013-07-18 04:41:00,
2013-07-17 23:46:00,68.4,65.0,30.11,ESE,108,1.0,2.0,89,0.00,,SKC,0.06,VWS V14.01,2013-07-18 04:46:00,
2013-07-17 23:51:00,68.4,65.0,30.11,ESE,111,0.0,0.0,89,0.00,,SKC,0.06,VWS V14.01,2013-07-18 04:51:00,
2013-07-17 23:56:00,68.3,64.9,30.11,ESE,111,0.0,0.0,89,0.00,,SKC,0.06,VWS V14.01,2013-07-18 04:56:00,